Погода в Дхарамсале

Индия     32°12′47″N   76°19′21″E
темп.,
°C
ветер,
м/с
пор.,
м/с
влажн.,
%
обл.,
%
осадки,
мм/ч
давл.,
гПа
погр.,
м
23 мая, пн
пн2323:30+19св653217 0.0 100060
02:30+18св5431100 0.1 100049
05:30+19св433099 0.2 100148
08:30+25всв222485 0.0 10001974
11:30+29юз251799 0.1 9993507
14:30+29ю681619 0.0 9974367
17:30+14з3778100 1.1 1004545
20:30+16св5562100 9.7 1001128
24 мая, вт
вт2423:30+17св554996 9.7 100179
02:30+17ссв224767 0.0 100320
05:30+17ссв2247100 0.8 100618
08:30+21зюз1238100 0.4 1007869
11:30+23юз4534100 1.0 10082053
14:30+25юз452563 0.2 10072295
17:30+25зюз232779 0.2 10061523
20:30+18св21460 0.0 100823
25 мая, ср
ср2523:30+18св54350 0.0 100845
02:30+18св43320 0.0 100837
05:30+17св43334 0.0 101030
08:30+23юз32320 0.0 1010826
11:30+26юз53306 0.0 10091996
14:30+26юз422767 0.0 10072522
17:30+25зсз223269 0.1 10061107
20:30+20св43434 0.0 100742
26 мая, чт
чт2623:30+20св43437 0.0 100740
02:30+20св43435 0.0 100637
05:30+19св44435 0.0 100742
08:30+26ююз22295 0.0 10071476
11:30+28юз432568 0.0 10052970
14:30+25св4435100 0.0 1006629
17:30+26ссв233216 0.0 10031164
20:30+22св54405 0.0 100555
27 мая, пт
пт2723:30+22св54390 0.0 100443
02:30+21св54390 0.0 100343
05:30+20св54390 0.0 100349
08:30+28юз33255 0.0 10031722
11:30+29юз432459 0.0 10032623
14:30+31ююз122138 0.0 10013038
17:30+31зюз221850 0.0 9993460
20:30+24св54325 0.0 100147